Location: ???????
(56.2167°N, 38.0500°E)
Time: 03:39:25
(UTC+00:00)

CZ-2C R/B - Pass Details

Date: 19 May 2025
Orbit: 631 x 693 km, 98.1° (Epoch: 15 June)

Event Time Altitude Azimuth Distance (km) Brightness Sun altitude
Rises 19:56:15 0° 19° (NNE) 2,945 7.9 -11.6°
Reaches altitude 10° 19:58:34 10° 27° (NNE) 2,029 6.8 -11.7°
Maximum altitude 20:02:46 42° 98° (E) 906 4.2 -11.9°
Enters shadow 20:05:43 18° 163° (SSE) 1,563 5.0 -12.0°
